OVZON-3

Last updated on Sun Jun 21 2026 00:03:09 GMT+0000 (Coordinated Universal Time)

1 58698U 24003A 26171.11865681 .00000046 00000+0 00000+0 0 9996 2 58698 0.0048 130.8972 0000033 159.5336 80.2964 1.00272956 7477
UTC large
Height (km)
Speed (km/s)
/
Latitude / Longitude
Inclination (degrees)
Orbital Period (minutes)
Azimuth
Elevation
Range (km)
Doppler Factor

Next 0 passes for location: London (51.5072 / 0.1276)

No passes found over London.
OVZON-3